START_TIME,STEP,MOV.,M35,t_acc.,PL05,t_acc.,PL06,t_acc.,PL07,t_acc.
1981-08-28 03:00:24.640 ,7,0,0.,4.8,1.,4.8,2.,4.8,0.,4.8
1981-08-28 03:00:29.440 ,7,0,0.,4.8,3.,4.8,1.,4.8,2.,4.8
1981-08-28 03:00:34.240 ,7,0,0.,4.8,1.,4.8,0.,4.8,0.,4.8
1981-08-28 03:00:39.040 ,7,0,0.,4.8,0.,4.8,0.,4.8,0.,4.8
1981-08-28 03:00:43.840 ,7,0,0.,4.8,0.,4.8,0.,4.8,1.,4.8
1981-08-28 03:00:48.640 ,7,0,0.,4.8,1.,4.8,0.,4.8,0.,4.8
1981-08-28 03:00:53.440 ,7,0,0.,4.8,1.,4.8,0.,4.8,1.,4.8
1981-08-28 03:00:58.240 ,7,0,0.,4.8,0.,4.8,0.,4.8,0.,4.8
1981-08-28 03:01:03.040 ,7,0,0.,4.8,0.,4.8,0.,4.8,0.,4.8
1981-08-28 03:01:07.840 ,7,0,0.,4.8,0.,4.8,0.,4.8,0.,4.8
1981-08-28 03:01:12.640 ,7,0,0.,4.8,0.,4.8,0.,4.8,0.,4.8
1981-08-28 03:01:17.440 ,7,0,0.,4.8,0.,4.8,0.,4.8,0.,4.8
1981-08-28 03:01:22.240 ,7,0,0.,4.8,0.,4.8,0.,4.8,0.,4.8
1981-08-28 03:01:27.040 ,7,0,0.,4.8,0.,4.8,1.,4.8,0.,4.8
1981-08-28 03:01:31.840 ,7,0,0.,4.8,0.,4.8,0.,4.8,0.,4.8
1981-08-28 03:01:36.640 ,6,0,0.,4.8,0.,4.8,0.,4.8,1.,4.8
1981-08-28 03:01:41.440 ,6,0,0.,4.8,0.,4.8,0.,4.8,0.,4.8
1981-08-28 03:01:46.240 ,6,0,0.,4.8,2.,4.8,2.,4.8,0.,4.8
1981-08-28 03:01:51.040 ,6,0,0.,4.8,2.,4.8,1.,4.8,0.,4.8
1981-08-28 03:01:55.840 ,6,0,0.,4.8,4.,4.8,1.,4.8,0.,4.8
1981-08-28 03:02:00.640 ,6,0,0.,4.8,0.,4.8,0.,4.8,0.,4.8
1981-08-28 03:02:05.440 ,6,0,0.,4.8,2.,4.8,0.,4.8,1.,4.8
1981-08-28 03:02:10.240 ,6,0,0.,4.8,0.,4.8,0.,4.8,0.,4.8
1981-08-28 03:02:15.040 ,6,0,0.,4.8,2.,4.8,0.,4.8,0.,4.8
1981-08-28 03:02:19.840 ,6,0,0.,4.8,1.,4.8,1.,4.8,0.,4.8
1981-08-28 03:02:24.640 ,5,0,0.,4.8,0.,4.8,0.,4.8,0.,4.8
1981-08-28 03:02:29.440 ,5,0,0.,4.8,2.,4.8,0.,4.8,0.,4.8
1981-08-28 03:02:34.240 ,5,0,0.,4.8,1.,4.8,0.,4.8,0.,4.8
1981-08-28 03:02:39.040 ,5,0,0.,4.8,1.,4.8,0.,4.8,0.,4.8
1981-08-28 03:02:43.840 ,5,0,0.,4.8,1.,4.8,0.,4.8,0.,4.8
1981-08-28 03:02:48.640 ,5,0,0.,4.8,2.,4.8,0.,4.8,1.,4.8
1981-08-28 03:02:53.440 ,5,0,0.,4.8,1.,4.8,1.,4.8,0.,4.8
1981-08-28 03:02:58.240 ,5,0,0.,4.8,1.,4.8,0.,4.8,0.,4.8
1981-08-28 03:03:03.040 ,5,0,0.,4.8,1.,4.8,0.,4.8,0.,4.8
1981-08-28 03:03:07.840 ,5,0,0.,4.8,1.,4.8,0.,4.8,0.,4.8
1981-08-28 03:03:12.640 ,4,0,0.,4.8,3.,4.8,0.,4.8,0.,4.8
1981-08-28 03:03:17.440 ,4,0,0.,4.8,1.,4.8,1.,4.8,0.,4.8
1981-08-28 03:03:22.240 ,4,0,0.,4.8,0.,4.8,0.,4.8,0.,4.8
1981-08-28 03:03:27.040 ,4,0,0.,4.8,1.,4.8,0.,4.8,0.,4.8
1981-08-28 03:03:31.840 ,4,0,0.,4.8,4.,4.8,0.,4.8,0.,4.8
1981-08-28 03:03:36.640 ,4,0,0.,4.8,0.,4.8,2.,4.8,0.,4.8
1981-08-28 03:03:41.440 ,4,0,0.,4.8,2.,4.8,0.,4.8,0.,4.8
1981-08-28 03:03:46.240 ,4,0,0.,4.8,2.,4.8,0.,4.8,0.,4.8
1981-08-28 03:03:51.040 ,4,0,0.,4.8,1.,4.8,2.,4.8,0.,4.8
1981-08-28 03:03:55.840 ,4,0,0.,4.8,1.,4.8,0.,4.8,0.,4.8
1981-08-28 03:04:00.640 ,3,0,0.,4.8,2.,4.8,0.,4.8,0.,4.8
1981-08-28 03:04:05.440 ,3,0,0.,4.8,1.,4.8,0.,4.8,0.,4.8
1981-08-28 03:04:10.240 ,3,0,0.,4.8,0.,4.8,0.,4.8,0.,4.8
1981-08-28 03:04:15.040 ,3,0,0.,4.8,1.,4.8,1.,4.8,0.,4.8
1981-08-28 03:04:19.840 ,3,0,0.,4.8,1.,4.8,0.,4.8,0.,4.8
1981-08-28 03:04:24.640 ,3,0,0.,4.8,0.,4.8,2.,4.8,0.,4.8
1981-08-28 03:04:29.440 ,3,0,0.,4.8,3.,4.8,0.,4.8,0.,4.8
1981-08-28 03:04:34.240 ,3,0,0.,4.8,1.,4.8,0.,4.8,0.,4.8
1981-08-28 03:04:39.040 ,3,0,0.,4.8,0.,4.8,0.,4.8,0.,4.8
1981-08-28 03:04:43.840 ,3,0,0.,4.8,0.,4.8,0.,4.8,0.,4.8
1981-08-28 03:04:48.640 ,2,0,0.,4.8,2.,4.8,0.,4.8,0.,4.8
1981-08-28 03:04:53.440 ,2,0,0.,4.8,0.,4.8,0.,4.8,0.,4.8
1981-08-28 03:04:58.240 ,2,0,0.,4.8,0.,4.8,0.,4.8,0.,4.8
1981-08-28 03:05:03.040 ,2,0,0.,4.8,1.,4.8,0.,4.8,0.,4.8
1981-08-28 03:05:07.840 ,2,0,0.,4.8,1.,4.8,0.,4.8,0.,4.8
1981-08-28 03:05:12.640 ,2,0,0.,4.8,1.,4.8,0.,4.8,0.,4.8
1981-08-28 03:05:17.440 ,2,0,0.,4.8,1.,4.8,0.,4.8,1.,4.8
1981-08-28 03:05:22.240 ,2,0,0.,4.8,2.,4.8,0.,4.8,0.,4.8
1981-08-28 03:05:27.040 ,2,0,0.,4.8,4.,4.8,1.,4.8,0.,4.8
1981-08-28 03:05:31.840 ,2,0,0.,4.8,2.,4.8,1.,4.8,1.,4.8
1981-08-28 03:05:36.640 ,1,0,0.,4.8,2.,4.8,0.,4.8,0.,4.8
1981-08-28 03:05:41.440 ,1,0,0.,4.8,0.,4.8,0.,4.8,0.,4.8
1981-08-28 03:05:46.240 ,1,0,0.,4.8,1.,4.8,1.,4.8,0.,4.8
1981-08-28 03:05:51.040 ,1,0,0.,4.8,0.,4.8,2.,4.8,0.,4.8
1981-08-28 03:05:55.840 ,1,0,0.,4.8,1.,4.8,0.,4.8,0.,4.8
1981-08-28 03:06:00.640 ,1,0,0.,4.8,0.,4.8,0.,4.8,0.,4.8
1981-08-28 03:06:05.440 ,1,0,0.,4.8,1.,4.8,0.,4.8,0.,4.8
1981-08-28 03:06:10.240 ,1,0,0.,4.8,2.,4.8,0.,4.8,1.,4.8
1981-08-28 03:06:15.040 ,1,0,0.,4.8,0.,4.8,0.,4.8,0.,4.8
1981-08-28 03:06:19.840 ,1,0,0.,4.8,0.,4.8,0.,4.8,0.,4.8
1981-08-28 03:06:24.640 ,0,0,0.,4.8,1.,4.8,0.,4.8,0.,4.8
1981-08-28 03:06:29.440 ,0,0,0.,4.8,2.,4.8,0.,4.8,0.,4.8
1981-08-28 03:06:34.240 ,0,0,0.,4.8,1.,4.8,1.,4.8,0.,4.8
1981-08-28 03:06:39.040 ,0,0,0.,4.8,1.,4.8,0.,4.8,0.,4.8
1981-08-28 03:06:43.840 ,0,0,0.,4.8,0.,4.8,0.,4.8,0.,4.8
1981-08-28 03:06:48.640 ,0,0,0.,4.8,1.,4.8,0.,4.8,0.,4.8
1981-08-28 03:06:53.440 ,0,0,0.,4.8,0.,4.8,0.,4.8,0.,4.8
1981-08-28 03:06:58.240 ,0,0,0.,4.8,0.,4.8,1.,4.8,0.,4.8
1981-08-28 03:07:03.040 ,0,0,0.,4.8,3.,4.8,1.,4.8,0.,4.8
1981-08-28 03:07:07.840 ,0,0,0.,4.8,3.,4.8,0.,4.8,0.,4.8
1981-08-28 03:09:36.640 ,0,0,0.,4.8,1.,4.8,0.,4.8,0.,4.8
1981-08-28 03:09:41.440 ,0,0,0.,4.8,0.,4.8,0.,4.8,0.,4.8
1981-08-28 03:09:46.240 ,0,0,0.,4.8,2.,4.8,0.,4.8,0.,4.8
1981-08-28 03:09:51.040 ,0,0,0.,4.8,4.,4.8,1.,4.8,0.,4.8
1981-08-28 03:09:55.840 ,0,0,0.,4.8,1.,4.8,0.,4.8,0.,4.8
1981-08-28 03:10:00.640 ,0,0,0.,4.8,1.,4.8,0.,4.8,0.,4.8
1981-08-28 03:10:05.440 ,0,0,0.,4.8,1.,4.8,0.,4.8,0.,4.8
1981-08-28 03:10:10.240 ,0,0,0.,4.8,3.,4.8,0.,4.8,0.,4.8
1981-08-28 03:10:15.040 ,0,0,0.,4.8,1.,4.8,1.,4.8,0.,4.8
1981-08-28 03:10:19.840 ,0,0,0.,4.8,0.,4.8,0.,4.8,0.,4.8
1981-08-28 03:10:24.640 ,4,0,0.,4.8,0.,4.8,0.,4.8,0.,4.8
1981-08-28 03:10:29.440 ,4,0,0.,4.8,1.,4.8,2.,4.8,0.,4.8
1981-08-28 03:10:34.240 ,4,0,0.,4.8,0.,4.8,0.,4.8,0.,4.8
1981-08-28 03:10:39.040 ,4,0,0.,4.8,1.,4.8,0.,4.8,0.,4.8
1981-08-28 03:10:43.840 ,4,0,0.,4.8,3.,4.8,0.,4.8,0.,4.8
1981-08-28 03:10:48.640 ,4,0,0.,4.8,0.,4.8,0.,4.8,0.,4.8
1981-08-28 03:10:53.440 ,4,0,0.,4.8,2.,4.8,0.,4.8,0.,4.8
1981-08-28 03:10:58.240 ,4,0,0.,4.8,1.,4.8,0.,4.8,0.,4.8
1981-08-28 03:11:03.040 ,4,0,0.,4.8,2.,4.8,0.,4.8,0.,4.8
1981-08-28 03:11:07.840 ,4,0,0.,4.8,1.,4.8,0.,4.8,0.,4.8
1981-08-28 03:11:12.640 ,5,0,0.,4.8,2.,4.8,0.,4.8,0.,4.8
1981-08-28 03:11:17.440 ,5,0,0.,4.8,0.,4.8,0.,4.8,1.,4.8
1981-08-28 03:11:22.240 ,5,0,0.,4.8,1.,4.8,0.,4.8,0.,4.8
1981-08-28 03:11:27.040 ,5,0,0.,4.8,1.,4.8,0.,4.8,0.,4.8
1981-08-28 03:11:31.840 ,5,0,0.,4.8,2.,4.8,0.,4.8,0.,4.8
1981-08-28 03:11:36.640 ,5,0,0.,4.8,1.,4.8,0.,4.8,0.,4.8
1981-08-28 03:11:41.440 ,5,0,0.,4.8,1.,4.8,1.,4.8,0.,4.8
1981-08-28 03:11:46.240 ,5,0,0.,4.8,0.,4.8,0.,4.8,0.,4.8
1981-08-28 03:11:51.040 ,5,0,0.,4.8,1.,4.8,0.,4.8,0.,4.8
1981-08-28 03:11:55.840 ,5,0,0.,4.8,0.,4.8,0.,4.8,0.,4.8
1981-08-28 03:12:48.640 ,0,0,0.,4.8,0.,4.8,0.,4.8,0.,4.8
1981-08-28 03:12:53.440 ,0,0,0.,4.8,1.,4.8,0.,4.8,0.,4.8
1981-08-28 03:12:58.240 ,0,0,0.,4.8,0.,4.8,0.,4.8,0.,4.8
1981-08-28 03:13:03.040 ,0,0,0.,4.8,0.,4.8,0.,4.8,0.,4.8
1981-08-28 03:13:07.840 ,0,0,0.,4.8,0.,4.8,0.,4.8,0.,4.8
1981-08-28 03:13:12.640 ,0,0,0.,4.8,1.,4.8,0.,4.8,0.,4.8
1981-08-28 03:13:17.440 ,0,0,0.,4.8,1.,4.8,0.,4.8,0.,4.8
1981-08-28 03:13:22.240 ,0,0,0.,4.8,0.,4.8,0.,4.8,0.,4.8
1981-08-28 03:13:27.040 ,0,0,0.,4.8,0.,4.8,0.,4.8,0.,4.8
1981-08-28 03:13:31.840 ,0,0,0.,4.8,0.,4.8,0.,4.8,0.,4.8
1981-08-28 03:15:12.640 ,0,0,0.,4.8,1.,4.8,0.,4.8,0.,4.8
1981-08-28 03:15:17.440 ,0,0,0.,4.8,1.,4.8,0.,4.8,0.,4.8
1981-08-28 03:15:22.240 ,0,0,0.,4.8,1.,4.8,1.,4.8,0.,4.8
1981-08-28 03:15:27.040 ,0,0,0.,4.8,3.,4.8,0.,4.8,0.,4.8
1981-08-28 03:15:31.840 ,0,0,0.,4.8,0.,4.8,0.,4.8,0.,4.8
1981-08-28 03:15:36.640 ,2,0,0.,4.8,1.,4.8,0.,4.8,0.,4.8
1981-08-28 03:15:41.440 ,2,0,0.,4.8,1.,4.8,0.,4.8,0.,4.8
1981-08-28 03:15:46.240 ,2,0,0.,4.8,0.,4.8,0.,4.8,0.,4.8
1981-08-28 03:15:51.040 ,2,0,0.,4.8,1.,4.8,0.,4.8,0.,4.8
1981-08-28 03:15:55.840 ,2,0,0.,4.8,0.,4.8,0.,4.8,0.,4.8
1981-08-28 03:16:00.640 ,1,0,0.,4.8,1.,4.8,0.,4.8,2.,4.8
1981-08-28 03:16:05.440 ,1,0,0.,4.8,0.,4.8,1.,4.8,0.,4.8
1981-08-28 03:16:10.240 ,1,0,0.,4.8,1.,4.8,0.,4.8,0.,4.8
1981-08-28 03:16:15.040 ,1,0,0.,4.8,1.,4.8,1.,4.8,0.,4.8
1981-08-28 03:16:19.840 ,1,0,0.,4.8,0.,4.8,0.,4.8,1.,4.8
1981-08-28 03:16:24.640 ,0,0,0.,4.8,2.,4.8,0.,4.8,0.,4.8
1981-08-28 03:16:29.440 ,0,0,0.,4.8,0.,4.8,0.,4.8,0.,4.8
1981-08-28 03:16:34.240 ,0,0,0.,4.8,2.,4.8,0.,4.8,0.,4.8
1981-08-28 03:16:39.040 ,0,0,0.,4.8,0.,4.8,1.,4.8,0.,4.8
1981-08-28 03:16:43.840 ,0,0,0.,4.8,1.,4.8,1.,4.8,0.,4.8
1981-08-28 03:16:48.640 ,0,0,0.,4.8,0.,4.8,0.,4.8,0.,4.8
1981-08-28 03:16:53.440 ,0,0,0.,4.8,2.,4.8,0.,4.8,1.,4.8
1981-08-28 03:16:58.240 ,0,0,0.,4.8,1.,4.8,1.,4.8,0.,4.8
1981-08-28 03:17:03.040 ,0,0,0.,4.8,1.,4.8,0.,4.8,0.,4.8
1981-08-28 03:17:07.840 ,0,0,0.,4.8,0.,4.8,0.,4.8,0.,4.8
1981-08-28 03:17:12.640 ,1,0,0.,4.8,1.,4.8,0.,4.8,1.,4.8
1981-08-28 03:17:17.440 ,1,0,0.,4.8,1.,4.8,1.,4.8,0.,4.8
1981-08-28 03:17:22.240 ,1,0,0.,4.8,0.,4.8,1.,4.8,0.,4.8
1981-08-28 03:17:27.040 ,1,0,0.,4.8,0.,4.8,0.,4.8,0.,4.8
1981-08-28 03:17:31.840 ,1,0,0.,4.8,2.,4.8,0.,4.8,0.,4.8
1981-08-28 03:17:36.640 ,2,0,0.,4.8,2.,4.8,0.,4.8,0.,4.8
1981-08-28 03:17:41.440 ,2,0,0.,4.8,1.,4.8,0.,4.8,0.,4.8
1981-08-28 03:17:46.240 ,2,0,0.,4.8,2.,4.8,0.,4.8,0.,4.8
1981-08-28 03:17:51.040 ,2,0,0.,4.8,1.,4.8,0.,4.8,0.,4.8
1981-08-28 03:17:55.840 ,2,0,0.,4.8,1.,4.8,0.,4.8,0.,4.8
1981-08-28 03:18:00.640 ,3,0,0.,4.8,1.,4.8,0.,4.8,0.,4.8
1981-08-28 03:18:05.440 ,3,0,0.,4.8,2.,4.8,1.,4.8,0.,4.8
1981-08-28 03:18:10.240 ,3,0,0.,4.8,4.,4.8,0.,4.8,0.,4.8
1981-08-28 03:18:15.040 ,3,0,0.,4.8,1.,4.8,0.,4.8,0.,4.8
1981-08-28 03:18:19.840 ,3,0,0.,4.8,0.,4.8,0.,4.8,0.,4.8
1981-08-28 03:18:24.640 ,4,0,0.,4.8,1.,4.8,0.,4.8,1.,4.8
1981-08-28 03:18:29.440 ,4,0,0.,4.8,1.,4.8,1.,4.8,0.,4.8
1981-08-28 03:18:34.240 ,4,0,0.,4.8,1.,4.8,0.,4.8,0.,4.8
1981-08-28 03:18:39.040 ,4,0,0.,4.8,2.,4.8,0.,4.8,0.,4.8
1981-08-28 03:18:43.840 ,4,0,0.,4.8,0.,4.8,1.,4.8,0.,4.8
1981-08-28 03:18:48.640 ,5,0,0.,4.8,1.,4.8,2.,4.8,0.,4.8
1981-08-28 03:18:53.440 ,5,0,0.,4.8,1.,4.8,2.,4.8,0.,4.8
1981-08-28 03:18:58.240 ,5,0,0.,4.8,1.,4.8,0.,4.8,0.,4.8
1981-08-28 03:19:03.040 ,5,0,0.,4.8,1.,4.8,0.,4.8,0.,4.8
1981-08-28 03:19:07.840 ,5,0,0.,4.8,1.,4.8,0.,4.8,0.,4.8
1981-08-28 03:19:12.640 ,6,0,0.,4.8,2.,4.8,0.,4.8,0.,4.8
1981-08-28 03:19:17.440 ,6,0,0.,4.8,2.,4.8,0.,4.8,0.,4.8
1981-08-28 03:19:22.240 ,6,0,0.,4.8,2.,4.8,0.,4.8,0.,4.8
1981-08-28 03:19:27.040 ,6,0,0.,4.8,1.,4.8,0.,4.8,0.,4.8
1981-08-28 03:19:31.840 ,6,0,0.,4.8,2.,4.8,0.,4.8,0.,4.8
1981-08-28 03:19:36.640 ,7,0,0.,4.8,0.,4.8,0.,4.8,0.,4.8
1981-08-28 03:19:41.440 ,7,0,0.,4.8,1.,4.8,0.,4.8,0.,4.8
1981-08-28 03:19:46.240 ,7,0,0.,4.8,0.,4.8,0.,4.8,0.,4.8
1981-08-28 03:19:51.040 ,7,0,0.,4.8,0.,4.8,0.,4.8,0.,4.8
1981-08-28 03:19:55.840 ,7,0,0.,4.8,1.,4.8,0.,4.8,0.,4.8
1981-08-28 03:24:15.640 ,0,0,,0,,0,,0,,0
1981-08-28 03:24:20.440 ,0,0,,0,,0,,0,,0
1981-08-28 03:24:25.240 ,0,0,,0,,0,,0,,0
1981-08-28 03:24:30.040 ,0,0,0.,4.8,1.,4.8,0.,4.8,0.,4.8
1981-08-28 03:24:34.840 ,0,0,0.,4.8,2.,4.8,0.,4.8,1.,4.8
1981-08-28 03:24:24.640 ,0,0,0.,4.8,1.,4.8,0.,4.8,0.,4.8
1981-08-28 03:24:29.440 ,0,0,0.,4.8,1.,4.8,0.,4.8,0.,4.8
1981-08-28 03:24:34.240 ,0,0,0.,4.8,1.,4.8,0.,4.8,0.,4.8
1981-08-28 03:24:39.040 ,0,0,0.,4.8,0.,4.8,0.,4.8,0.,4.8
1981-08-28 03:24:43.840 ,0,0,0.,4.8,2.,4.8,0.,4.8,0.,4.8
1981-08-28 03:24:48.640 ,1,0,0.,4.8,0.,4.8,0.,4.8,1.,4.8
1981-08-28 03:24:53.440 ,1,0,0.,4.8,1.,4.8,0.,4.8,0.,4.8
1981-08-28 03:24:58.240 ,1,0,0.,4.8,3.,4.8,0.,4.8,0.,4.8
1981-08-28 03:25:03.040 ,1,0,0.,4.8,2.,4.8,2.,4.8,0.,4.8
1981-08-28 03:25:07.840 ,1,0,0.,4.8,0.,4.8,0.,4.8,0.,4.8
1981-08-28 03:25:12.640 ,1,0,0.,4.8,1.,4.8,0.,4.8,0.,4.8
1981-08-28 03:25:17.440 ,1,0,0.,4.8,2.,4.8,1.,4.8,0.,4.8
1981-08-28 03:25:22.240 ,1,0,0.,4.8,2.,4.8,0.,4.8,0.,4.8
1981-08-28 03:25:27.040 ,1,0,0.,4.8,1.,4.8,0.,4.8,0.,4.8
1981-08-28 03:25:31.840 ,1,0,0.,4.8,2.,4.8,0.,4.8,0.,4.8
1981-08-28 03:25:36.640 ,0,0,0.,4.8,0.,4.8,0.,4.8,0.,4.8
1981-08-28 03:25:41.440 ,0,0,0.,4.8,0.,4.8,0.,4.8,0.,4.8
1981-08-28 03:25:46.240 ,0,0,0.,4.8,1.,4.8,0.,4.8,0.,4.8
1981-08-28 03:25:51.040 ,0,0,0.,4.8,1.,4.8,0.,4.8,0.,4.8
1981-08-28 03:25:55.840 ,0,0,0.,4.8,0.,4.8,0.,4.8,0.,4.8
1981-08-28 03:26:00.640 ,0,0,0.,4.8,0.,4.8,0.,4.8,0.,4.8
1981-08-28 03:26:05.440 ,0,0,0.,4.8,1.,4.8,0.,4.8,1.,4.8
1981-08-28 03:26:10.240 ,0,0,0.,4.8,0.,4.8,0.,4.8,0.,4.8
1981-08-28 03:26:15.040 ,0,0,0.,4.8,1.,4.8,0.,4.8,0.,4.8
1981-08-28 03:26:19.840 ,0,0,0.,4.8,1.,4.8,0.,4.8,0.,4.8
1981-08-28 03:26:24.640 ,0,0,0.,4.8,1.,4.8,0.,4.8,0.,4.8
1981-08-28 03:26:29.440 ,0,0,0.,4.8,3.,4.8,0.,4.8,0.,4.8
1981-08-28 03:26:34.240 ,0,0,0.,4.8,0.,4.8,0.,4.8,0.,4.8
1981-08-28 03:26:39.040 ,0,0,0.,4.8,0.,4.8,0.,4.8,0.,4.8
1981-08-28 03:26:43.840 ,0,0,0.,4.8,3.,4.8,0.,4.8,0.,4.8
1981-08-28 03:26:48.640 ,0,0,0.,4.8,0.,4.8,1.,4.8,0.,4.8
1981-08-28 03:26:53.440 ,0,0,0.,4.8,1.,4.8,0.,4.8,0.,4.8
1981-08-28 03:26:58.240 ,0,0,0.,4.8,1.,4.8,0.,4.8,0.,4.8
1981-08-28 03:27:03.040 ,0,0,0.,4.8,1.,4.8,0.,4.8,0.,4.8
1981-08-28 03:27:07.840 ,0,0,0.,4.8,5.,4.8,0.,4.8,0.,4.8
1981-08-28 03:27:12.640 ,1,0,0.,4.8,0.,4.8,0.,4.8,0.,4.8
1981-08-28 03:27:17.440 ,1,0,0.,4.8,2.,4.8,0.,4.8,0.,4.8
1981-08-28 03:27:22.240 ,1,0,0.,4.8,1.,4.8,0.,4.8,0.,4.8
1981-08-28 03:27:27.040 ,1,0,0.,4.8,1.,4.8,0.,4.8,2.,4.8
1981-08-28 03:27:31.840 ,1,0,0.,4.8,0.,4.8,1.,4.8,0.,4.8
1981-08-28 03:27:36.640 ,1,0,0.,4.8,2.,4.8,0.,4.8,0.,4.8
1981-08-28 03:27:41.440 ,1,0,0.,4.8,1.,4.8,0.,4.8,0.,4.8
1981-08-28 03:27:46.240 ,1,0,0.,4.8,3.,4.8,0.,4.8,0.,4.8
1981-08-28 03:27:51.040 ,1,0,0.,4.8,0.,4.8,0.,4.8,0.,4.8
1981-08-28 03:27:55.840 ,1,0,0.,4.8,1.,4.8,0.,4.8,0.,4.8
1981-08-28 03:28:00.640 ,2,0,0.,4.8,3.,4.8,0.,4.8,0.,4.8
1981-08-28 03:28:05.440 ,2,0,0.,4.8,0.,4.8,1.,4.8,1.,4.8
1981-08-28 03:28:10.240 ,2,0,0.,4.8,0.,4.8,1.,4.8,0.,4.8
1981-08-28 03:28:15.040 ,2,0,0.,4.8,1.,4.8,0.,4.8,0.,4.8
1981-08-28 03:28:19.840 ,2,0,0.,4.8,2.,4.8,1.,4.8,1.,4.8
1981-08-28 03:28:24.640 ,2,0,0.,4.8,2.,4.8,0.,4.8,0.,4.8
1981-08-28 03:28:29.440 ,2,0,0.,4.8,2.,4.8,1.,4.8,0.,4.8
1981-08-28 03:28:34.240 ,2,0,0.,4.8,1.,4.8,0.,4.8,0.,4.8
1981-08-28 03:28:39.040 ,2,0,0.,4.8,0.,4.8,1.,4.8,0.,4.8
1981-08-28 03:28:43.840 ,2,0,0.,4.8,0.,4.8,0.,4.8,0.,4.8
1981-08-28 03:28:48.640 ,3,0,0.,4.8,1.,4.8,1.,4.8,0.,4.8
1981-08-28 03:28:53.440 ,3,0,0.,4.8,1.,4.8,0.,4.8,0.,4.8
1981-08-28 03:28:58.240 ,3,0,0.,4.8,2.,4.8,0.,4.8,1.,4.8
1981-08-28 03:29:03.040 ,3,0,0.,4.8,0.,4.8,0.,4.8,0.,4.8
1981-08-28 03:29:07.840 ,3,0,0.,4.8,2.,4.8,0.,4.8,1.,4.8
1981-08-28 03:29:12.640 ,3,0,0.,4.8,0.,4.8,0.,4.8,0.,4.8
1981-08-28 03:29:17.440 ,3,0,0.,4.8,2.,4.8,1.,4.8,0.,4.8
1981-08-28 03:29:22.240 ,3,0,0.,4.8,1.,4.8,0.,4.8,0.,4.8
1981-08-28 03:29:27.040 ,3,0,0.,4.8,2.,4.8,0.,4.8,0.,4.8
1981-08-28 03:29:31.840 ,3,0,0.,4.8,0.,4.8,2.,4.8,0.,4.8
1981-08-28 03:29:36.640 ,4,0,0.,4.8,2.,4.8,0.,4.8,1.,4.8
1981-08-28 03:29:41.440 ,4,0,0.,4.8,2.,4.8,1.,4.8,0.,4.8
1981-08-28 03:29:46.240 ,4,0,0.,4.8,2.,4.8,0.,4.8,0.,4.8
1981-08-28 03:29:51.040 ,4,0,,0,,0,,0,,0
1981-08-28 03:29:55.840 ,4,0,,0,,0,,0,,0
1981-08-28 03:30:00.640 ,4,0,0.,4.8,0.,4.8,0.,4.8,0.,4.8
1981-08-28 03:30:05.440 ,4,0,0.,4.8,3.,4.8,0.,4.8,2.,4.8
1981-08-28 03:30:10.240 ,4,0,0.,4.8,3.,4.8,0.,4.8,0.,4.8
1981-08-28 03:30:15.040 ,4,0,0.,4.8,1.,4.8,0.,4.8,0.,4.8
1981-08-28 03:30:19.840 ,4,0,0.,4.8,2.,4.8,0.,4.8,0.,4.8
1981-08-28 03:30:24.640 ,5,0,0.,4.8,2.,4.8,0.,4.8,0.,4.8
1981-08-28 03:30:29.440 ,5,0,0.,4.8,0.,4.8,1.,4.8,0.,4.8
1981-08-28 03:30:34.240 ,5,0,0.,4.8,2.,4.8,0.,4.8,0.,4.8
1981-08-28 03:30:39.040 ,5,0,0.,4.8,3.,4.8,0.,4.8,0.,4.8
1981-08-28 03:30:43.840 ,5,0,0.,4.8,4.,4.8,0.,4.8,0.,4.8
1981-08-28 03:30:48.640 ,5,0,0.,4.8,1.,4.8,0.,4.8,0.,4.8
1981-08-28 03:30:53.440 ,5,0,0.,4.8,3.,4.8,1.,4.8,0.,4.8
1981-08-28 03:30:58.240 ,5,0,0.,4.8,2.,4.8,1.,4.8,1.,4.8
1981-08-28 03:31:03.040 ,5,0,0.,4.8,1.,4.8,0.,4.8,2.,4.8
1981-08-28 03:31:07.840 ,5,0,0.,4.8,3.,4.8,0.,4.8,1.,4.8
1981-08-28 03:31:12.640 ,6,0,0.,4.8,3.,4.8,0.,4.8,0.,4.8
1981-08-28 03:31:17.440 ,6,0,0.,4.8,0.,4.8,0.,4.8,0.,4.8
1981-08-28 03:31:22.240 ,6,0,0.,4.8,1.,4.8,0.,4.8,0.,4.8
1981-08-28 03:31:27.040 ,6,0,0.,4.8,0.,4.8,0.,4.8,1.,4.8
1981-08-28 03:31:31.840 ,6,0,0.,4.8,1.,4.8,0.,4.8,0.,4.8
1981-08-28 03:31:36.640 ,6,0,0.,4.8,2.,4.8,0.,4.8,0.,4.8
1981-08-28 03:31:41.440 ,6,0,0.,4.8,2.,4.8,0.,4.8,0.,4.8
1981-08-28 03:31:46.240 ,6,0,0.,4.8,1.,4.8,1.,4.8,0.,4.8
1981-08-28 03:31:51.040 ,6,0,0.,4.8,1.,4.8,0.,4.8,0.,4.8
1981-08-28 03:31:55.840 ,6,0,0.,4.8,3.,4.8,0.,4.8,0.,4.8
1981-08-28 03:32:00.640 ,7,0,0.,4.8,4.,4.8,0.,4.8,0.,4.8
1981-08-28 03:32:05.440 ,7,0,0.,4.8,2.,4.8,0.,4.8,1.,4.8
1981-08-28 03:32:10.240 ,7,0,0.,4.8,0.,4.8,0.,4.8,0.,4.8
1981-08-28 03:32:15.040 ,7,0,0.,4.8,1.,4.8,0.,4.8,0.,4.8
1981-08-28 03:32:19.840 ,7,0,0.,4.8,0.,4.8,0.,4.8,0.,4.8
1981-08-28 03:32:24.640 ,7,0,0.,4.8,0.,4.8,0.,4.8,0.,4.8
1981-08-28 03:32:29.440 ,7,0,0.,4.8,0.,4.8,0.,4.8,0.,4.8
1981-08-28 03:32:34.240 ,7,0,0.,4.8,0.,4.8,0.,4.8,0.,4.8
1981-08-28 03:32:39.040 ,7,0,0.,4.8,1.,4.8,0.,4.8,0.,4.8
1981-08-28 03:32:43.840 ,7,0,0.,4.8,0.,4.8,0.,4.8,0.,4.8
1981-08-28 03:32:48.640 ,7,0,0.,4.8,0.,4.8,0.,4.8,0.,4.8
1981-08-28 03:32:53.440 ,7,0,0.,4.8,1.,4.8,0.,4.8,0.,4.8
1981-08-28 03:32:58.240 ,7,0,0.,4.8,1.,4.8,0.,4.8,0.,4.8
1981-08-28 03:33:03.040 ,7,0,0.,4.8,0.,4.8,0.,4.8,0.,4.8
1981-08-28 03:33:07.840 ,7,0,0.,4.8,1.,4.8,1.,4.8,0.,4.8
1981-08-28 03:33:12.640 ,6,0,0.,4.8,0.,4.8,0.,4.8,0.,4.8
1981-08-28 03:33:17.440 ,6,0,0.,4.8,0.,4.8,0.,4.8,0.,4.8
1981-08-28 03:33:22.240 ,6,0,0.,4.8,1.,4.8,0.,4.8,1.,4.8
1981-08-28 03:33:27.040 ,6,0,0.,4.8,1.,4.8,0.,4.8,1.,4.8
1981-08-28 03:33:31.840 ,6,0,0.,4.8,1.,4.8,0.,4.8,0.,4.8
1981-08-28 03:33:36.640 ,5,0,0.,4.8,2.,4.8,0.,4.8,0.,4.8
1981-08-28 03:33:41.440 ,5,0,0.,4.8,1.,4.8,0.,4.8,0.,4.8
1981-08-28 03:33:46.240 ,5,0,0.,4.8,2.,4.8,0.,4.8,0.,4.8
1981-08-28 03:33:51.040 ,5,0,0.,4.8,1.,4.8,0.,4.8,0.,4.8
1981-08-28 03:33:55.840 ,5,0,0.,4.8,0.,4.8,1.,4.8,0.,4.8
1981-08-28 03:34:00.640 ,4,0,0.,4.8,1.,4.8,1.,4.8,1.,4.8
1981-08-28 03:34:05.440 ,4,0,0.,4.8,0.,4.8,0.,4.8,0.,4.8
1981-08-28 03:34:10.240 ,4,0,0.,4.8,2.,4.8,1.,4.8,0.,4.8
1981-08-28 03:34:15.040 ,4,0,0.,4.8,0.,4.8,1.,4.8,0.,4.8
1981-08-28 03:34:19.840 ,4,0,0.,4.8,1.,4.8,1.,4.8,1.,4.8
1981-08-28 03:34:24.640 ,3,0,0.,4.8,1.,4.8,0.,4.8,0.,4.8
1981-08-28 03:34:29.440 ,3,0,0.,4.8,0.,4.8,0.,4.8,0.,4.8
1981-08-28 03:34:34.240 ,3,0,0.,4.8,0.,4.8,0.,4.8,1.,4.8
1981-08-28 03:34:39.040 ,3,0,0.,4.8,0.,4.8,1.,4.8,0.,4.8
1981-08-28 03:34:43.840 ,3,0,0.,4.8,0.,4.8,0.,4.8,1.,4.8
1981-08-28 03:34:48.640 ,2,0,0.,4.8,3.,4.8,0.,4.8,0.,4.8
1981-08-28 03:34:53.440 ,2,0,0.,4.8,0.,4.8,0.,4.8,0.,4.8
1981-08-28 03:34:58.240 ,2,0,0.,4.8,0.,4.8,0.,4.8,0.,4.8
1981-08-28 03:35:03.040 ,2,0,0.,4.8,0.,4.8,0.,4.8,1.,4.8
1981-08-28 03:35:07.840 ,2,0,0.,4.8,0.,4.8,0.,4.8,0.,4.8
1981-08-28 03:35:12.640 ,1,0,0.,4.8,0.,4.8,0.,4.8,0.,4.8
1981-08-28 03:35:17.440 ,1,0,0.,4.8,2.,4.8,0.,4.8,0.,4.8
1981-08-28 03:35:22.240 ,1,0,0.,4.8,1.,4.8,0.,4.8,0.,4.8
1981-08-28 03:35:27.040 ,1,0,0.,4.8,2.,4.8,0.,4.8,0.,4.8
1981-08-28 03:35:31.840 ,1,0,0.,4.8,1.,4.8,0.,4.8,0.,4.8
1981-08-28 03:35:36.640 ,0,0,0.,4.8,3.,4.8,0.,4.8,0.,4.8
1981-08-28 03:35:41.440 ,0,0,0.,4.8,0.,4.8,0.,4.8,0.,4.8
1981-08-28 03:35:46.240 ,0,0,0.,4.8,4.,4.8,1.,4.8,0.,4.8
1981-08-28 03:35:51.040 ,0,0,0.,4.8,3.,4.8,0.,4.8,1.,4.8
1981-08-28 03:35:55.840 ,0,0,0.,4.8,0.,4.8,1.,4.8,1.,4.8
1981-08-28 03:36:48.640 ,0,0,0.,4.8,2.,4.8,0.,4.8,0.,4.8
1981-08-28 03:36:53.440 ,0,0,0.,4.8,0.,4.8,0.,4.8,0.,4.8
1981-08-28 03:36:58.240 ,0,0,0.,4.8,1.,4.8,0.,4.8,1.,4.8
1981-08-28 03:37:03.040 ,0,0,0.,4.8,0.,4.8,0.,4.8,0.,4.8
1981-08-28 03:37:07.840 ,0,0,0.,4.8,1.,4.8,0.,4.8,0.,4.8
1981-08-28 03:37:12.640 ,3,0,0.,4.8,1.,4.8,0.,4.8,0.,4.8
1981-08-28 03:37:17.440 ,3,0,0.,4.8,1.,4.8,0.,4.8,0.,4.8
1981-08-28 03:37:22.240 ,3,0,0.,4.8,0.,4.8,0.,4.8,0.,4.8
1981-08-28 03:37:27.040 ,3,0,0.,4.8,4.,4.8,0.,4.8,0.,4.8
1981-08-28 03:37:31.840 ,3,0,0.,4.8,3.,4.8,0.,4.8,0.,4.8
1981-08-28 03:37:36.640 ,4,0,0.,4.8,1.,4.8,0.,4.8,0.,4.8
1981-08-28 03:37:41.440 ,4,0,0.,4.8,0.,4.8,0.,4.8,0.,4.8
1981-08-28 03:37:46.240 ,4,0,0.,4.8,1.,4.8,0.,4.8,0.,4.8
1981-08-28 03:37:51.040 ,4,0,0.,4.8,1.,4.8,0.,4.8,1.,4.8
1981-08-28 03:37:55.840 ,4,0,0.,4.8,2.,4.8,1.,4.8,0.,4.8
1981-08-28 03:38:00.640 ,5,0,0.,4.8,0.,4.8,0.,4.8,0.,4.8
1981-08-28 03:38:05.440 ,5,0,0.,4.8,1.,4.8,0.,4.8,0.,4.8
1981-08-28 03:38:10.240 ,5,0,0.,4.8,2.,4.8,0.,4.8,0.,4.8
1981-08-28 03:38:15.040 ,5,0,0.,4.8,0.,4.8,0.,4.8,0.,4.8
1981-08-28 03:38:19.840 ,5,0,0.,4.8,2.,4.8,1.,4.8,0.,4.8
1981-08-28 03:38:24.640 ,6,0,0.,4.8,2.,4.8,0.,4.8,0.,4.8
1981-08-28 03:38:29.440 ,6,0,0.,4.8,1.,4.8,0.,4.8,0.,4.8
1981-08-28 03:38:34.240 ,6,0,0.,4.8,1.,4.8,0.,4.8,0.,4.8
1981-08-28 03:38:39.040 ,6,0,0.,4.8,1.,4.8,0.,4.8,0.,4.8
1981-08-28 03:38:43.840 ,6,0,0.,4.8,0.,4.8,1.,4.8,0.,4.8
1981-08-28 03:38:48.640 ,7,0,0.,4.8,0.,4.8,0.,4.8,0.,4.8
1981-08-28 03:38:53.440 ,7,0,0.,4.8,1.,4.8,0.,4.8,0.,4.8
1981-08-28 03:38:58.240 ,7,0,0.,4.8,1.,4.8,0.,4.8,0.,4.8
1981-08-28 03:39:03.040 ,7,0,0.,4.8,0.,4.8,0.,4.8,0.,4.8
1981-08-28 03:39:07.840 ,7,0,0.,4.8,0.,4.8,0.,4.8,0.,4.8
1981-08-28 03:39:12.640 ,7,0,0.,4.8,1.,4.8,0.,4.8,0.,4.8
1981-08-28 03:39:17.440 ,7,0,0.,4.8,0.,4.8,0.,4.8,1.,4.8
1981-08-28 03:39:22.240 ,7,0,0.,4.8,0.,4.8,0.,4.8,0.,4.8
1981-08-28 03:39:27.040 ,7,0,0.,4.8,0.,4.8,0.,4.8,0.,4.8
1981-08-28 03:39:31.840 ,7,0,0.,4.8,0.,4.8,0.,4.8,0.,4.8
1981-08-28 03:39:36.640 ,7,0,0.,4.8,0.,4.8,0.,4.8,0.,4.8
1981-08-28 03:39:41.440 ,7,0,0.,4.8,0.,4.8,0.,4.8,0.,4.8
1981-08-28 03:39:46.240 ,7,0,0.,4.8,0.,4.8,0.,4.8,1.,4.8
1981-08-28 03:39:51.040 ,7,0,0.,4.8,0.,4.8,0.,4.8,0.,4.8
1981-08-28 03:39:55.840 ,7,0,0.,4.8,0.,4.8,0.,4.8,0.,4.8
1981-08-28 03:40:00.640 ,6,0,0.,4.8,0.,4.8,0.,4.8,0.,4.8
1981-08-28 03:40:05.440 ,6,0,0.,4.8,0.,4.8,0.,4.8,0.,4.8
1981-08-28 03:40:10.240 ,6,0,0.,4.8,1.,4.8,2.,4.8,0.,4.8
1981-08-28 03:40:15.040 ,6,0,0.,4.8,1.,4.8,0.,4.8,1.,4.8
1981-08-28 03:40:19.840 ,6,0,0.,4.8,1.,4.8,0.,4.8,0.,4.8
1981-08-28 03:40:24.640 ,6,0,0.,4.8,2.,4.8,0.,4.8,0.,4.8
1981-08-28 03:40:29.440 ,6,0,0.,4.8,1.,4.8,0.,4.8,0.,4.8
1981-08-28 03:40:34.240 ,6,0,0.,4.8,0.,4.8,0.,4.8,0.,4.8
1981-08-28 03:40:39.040 ,6,0,0.,4.8,2.,4.8,0.,4.8,0.,4.8
1981-08-28 03:40:43.840 ,6,0,0.,4.8,0.,4.8,0.,4.8,0.,4.8
1981-08-28 03:40:48.640 ,5,0,0.,4.8,2.,4.8,0.,4.8,0.,4.8
1981-08-28 03:40:53.440 ,5,0,0.,4.8,2.,4.8,0.,4.8,0.,4.8
1981-08-28 03:40:58.240 ,5,0,0.,4.8,0.,4.8,0.,4.8,1.,4.8
1981-08-28 03:41:03.040 ,5,0,0.,4.8,0.,4.8,1.,4.8,0.,4.8
1981-08-28 03:41:07.840 ,5,0,0.,4.8,1.,4.8,0.,4.8,0.,4.8
1981-08-28 03:41:12.640 ,5,0,0.,4.8,2.,4.8,0.,4.8,0.,4.8
1981-08-28 03:41:17.440 ,5,0,0.,4.8,0.,4.8,0.,4.8,0.,4.8
1981-08-28 03:41:22.240 ,5,0,0.,4.8,3.,4.8,0.,4.8,0.,4.8
1981-08-28 03:41:27.040 ,5,0,0.,4.8,1.,4.8,0.,4.8,0.,4.8
1981-08-28 03:41:31.840 ,5,0,0.,4.8,3.,4.8,0.,4.8,0.,4.8
1981-08-28 03:41:36.640 ,4,0,0.,4.8,1.,4.8,0.,4.8,0.,4.8
1981-08-28 03:41:41.440 ,4,0,0.,4.8,3.,4.8,0.,4.8,0.,4.8
1981-08-28 03:41:46.240 ,4,0,0.,4.8,1.,4.8,0.,4.8,0.,4.8
1981-08-28 03:41:51.040 ,4,0,0.,4.8,2.,4.8,0.,4.8,0.,4.8
1981-08-28 03:41:55.840 ,4,0,0.,4.8,1.,4.8,1.,4.8,0.,4.8
1981-08-28 03:42:00.640 ,4,0,0.,4.8,2.,4.8,0.,4.8,0.,4.8
1981-08-28 03:42:05.440 ,4,0,0.,4.8,1.,4.8,0.,4.8,0.,4.8
1981-08-28 03:42:10.240 ,4,0,0.,4.8,0.,4.8,0.,4.8,0.,4.8
1981-08-28 03:42:15.040 ,4,0,0.,4.8,3.,4.8,0.,4.8,0.,4.8
1981-08-28 03:42:19.840 ,4,0,0.,4.8,1.,4.8,0.,4.8,0.,4.8
1981-08-28 03:42:24.640 ,3,0,0.,4.8,1.,4.8,0.,4.8,0.,4.8
1981-08-28 03:42:29.440 ,3,0,0.,4.8,2.,4.8,0.,4.8,0.,4.8
1981-08-28 03:42:34.240 ,3,0,0.,4.8,1.,4.8,0.,4.8,0.,4.8
1981-08-28 03:42:39.040 ,3,0,0.,4.8,2.,4.8,0.,4.8,0.,4.8
1981-08-28 03:42:43.840 ,3,0,0.,4.8,1.,4.8,2.,4.8,0.,4.8
1981-08-28 03:42:48.640 ,3,0,0.,4.8,2.,4.8,0.,4.8,0.,4.8
1981-08-28 03:42:53.440 ,3,0,0.,4.8,0.,4.8,0.,4.8,0.,4.8
1981-08-28 03:42:58.240 ,3,0,0.,4.8,0.,4.8,0.,4.8,0.,4.8